Glendive, MT

11:13 PM MST on February 20, 2017 (GMT -0700)
Dawson Community

Weather History for KGDV - July, 2013

Change the Weather History Date:

Wednesday, July 24, 2013

  Actual Average Record
Temperature  
Mean Temperature 68 °F -  
Max Temperature 84 °F 84 °F 105 °F (2003)
Min Temperature 51 °F 57 °F 46 °F (2004)
Cooling Degree Days 2    
Growing Degree Days 18 (Base 50)    
Moisture  
Dew Point 53 °F    
Average Humidity 61    
Maximum Humidity 94    
Minimum Humidity 29    
Precipitation  
Precipitation 1.06 in - - ()
Sea Level Pressure  
Sea Level Pressure 30.09 in    
Wind  
Wind Speed 5 mph (ENE)    
Max Wind Speed 24 mph    
Max Gust Speed 59 mph    
Visibility 10 miles    
Events Thunderstorm    
Averages and records for this station are not official NWS values.
T = Trace of Precipitation, MM = Missing Value Source: NWS Daily Summary

Daily Weather History Graph

Daily Weather History Graph

Search for Another Location

Airport or City:

Trip Planner

Search our weather history database for the weather conditions in past years. The results will help you decide how hot, cold, wet, or windy it might be!

Date:

Astronomy

Jul. 24, 2013 Rise Set
Actual Time 5:28 AM MDT 8:41 PM MDT
Civil Twilight 4:52 AM MDT 9:18 PM MDT
Nautical Twilight 4:04 AM MDT 10:06 PM MDT
Astronomical Twilight 3:03 AM MDT 11:05 PM MDT
Moon 9:33 PM MDT (7/24) 8:05 AM MDT (7/24)
Length of Visible Light 16h 26m
Length of Day
15h 12m
Waning Gibbous, 94% of the Moon is Illuminated
Jul 24
Waning Gibbous
Jul 29
Last Quarter
Aug 6
New
Aug 14
First Quarter
Aug 20
Full

Hourly Weather History & Observations

Time (MDT) Temp. Heat Index Dew Point Humidity Pressure Visibility Wind Dir Wind Speed Gust Speed Precip Events Conditions
12:16 AM 60.8 °F - 51.8 °F 72% 30.13 in 10.0 mi NE 4.6 mph - N/A   Clear
12:35 AM 57.2 °F - 48.2 °F 72% 30.13 in 10.0 mi Calm Calm - N/A   Clear
12:55 AM 57.2 °F - 51.8 °F 82% 30.13 in 10.0 mi NNE 3.5 mph - N/A   Clear
1:15 AM 57.2 °F - 53.6 °F 88% 30.12 in 10.0 mi Calm Calm - N/A   Clear
1:35 AM 59.0 °F - 51.8 °F 77% 30.13 in 10.0 mi Calm Calm - N/A   Clear
1:55 AM 57.2 °F - 51.8 °F 82% 30.13 in 10.0 mi NNW 4.6 mph - N/A   Clear
2:15 AM 55.4 °F - 51.8 °F 88% 30.13 in 10.0 mi NNW 4.6 mph - N/A   Clear
2:35 AM 57.2 °F - 51.8 °F 82% 30.13 in 10.0 mi NNW 5.8 mph - N/A   Clear
2:55 AM 57.2 °F - 51.8 °F 82% 30.13 in 10.0 mi NNW 5.8 mph - N/A   Clear
3:15 AM 57.2 °F - 51.8 °F 82% 30.13 in 10.0 mi NNW 3.5 mph - N/A   Clear
3:35 AM 53.6 °F - 48.2 °F 82% 30.13 in 10.0 mi NW 4.6 mph - N/A   Clear
3:55 AM 55.4 °F - 51.8 °F 88% 30.13 in 10.0 mi NW 5.8 mph - N/A   Clear
4:15 AM 53.6 °F - 50.0 °F 88% 30.13 in 10.0 mi NW 4.6 mph - N/A   Clear
4:35 AM 55.4 °F - 51.8 °F 88% 30.12 in 10.0 mi NNW 6.9 mph - N/A   Clear
4:55 AM 53.6 °F - 51.8 °F 94% 30.12 in 10.0 mi NNW 6.9 mph - N/A   Clear
5:15 AM 53.6 °F - 50.0 °F 88% 30.12 in 10.0 mi NW 5.8 mph - N/A   Clear
5:35 AM 51.8 °F - 48.2 °F 88% 30.12 in 10.0 mi NW 4.6 mph - N/A   Clear
5:55 AM 53.6 °F - 48.2 °F 82% 30.13 in 10.0 mi NW 5.8 mph - N/A   Clear
6:15 AM 55.4 °F - 51.8 °F 88% 30.13 in 10.0 mi NW 5.8 mph - N/A   Clear
6:35 AM 57.2 °F - 53.6 °F 88% 30.13 in 10.0 mi WNW 4.6 mph - N/A   Clear
6:55 AM 60.8 °F - 55.4 °F 82% 30.13 in 10.0 mi Calm Calm - N/A   Clear
7:15 AM 64.4 °F - 57.2 °F 77% 30.13 in 10.0 mi Calm Calm - N/A   Clear
7:35 AM 66.2 °F - 55.4 °F 68% 30.14 in 10.0 mi Calm Calm - N/A   Clear
7:55 AM 64.4 °F - 55.4 °F 73% 30.14 in 10.0 mi Calm Calm - N/A   Clear
8:15 AM 68.0 °F - 57.2 °F 68% 30.14 in 10.0 mi SSW 3.5 mph - N/A   Clear
8:35 AM 69.8 °F - 57.2 °F 64% 30.14 in 10.0 mi South 4.6 mph - N/A   Clear
8:55 AM 69.8 °F - 57.2 °F 64% 30.13 in 10.0 mi South 5.8 mph - N/A   Clear
9:15 AM 71.6 °F - 57.2 °F 60% 30.14 in 10.0 mi SW 4.6 mph - N/A   Clear
9:35 AM 73.4 °F - 57.2 °F 57% 30.13 in 10.0 mi SSE 5.8 mph - N/A   Clear
9:55 AM 73.4 °F - 55.4 °F 53% 30.13 in 10.0 mi SSE 4.6 mph - N/A   Clear
10:15 AM 75.2 °F - 53.6 °F 47% 30.13 in 10.0 mi SSE 6.9 mph - N/A   Clear
10:35 AM 75.2 °F - 51.8 °F 44% 30.13 in 10.0 mi SSE 6.9 mph - N/A   Clear
10:55 AM 77.0 °F - 48.2 °F 36% 30.12 in 10.0 mi SE 4.6 mph - N/A   Clear
11:15 AM 78.8 °F - 50.0 °F 36% 30.12 in 10.0 mi SSE 6.9 mph - N/A   Clear
11:35 AM 80.6 °F - 51.8 °F 37% 30.11 in 10.0 mi South 6.9 mph - N/A   Clear
11:55 AM 80.6 °F - 51.8 °F 37% 30.11 in 10.0 mi South 4.6 mph - N/A   Clear
12:15 PM 78.8 °F - 51.8 °F 39% 30.11 in 10.0 mi SSE 5.8 mph - N/A   Clear
12:35 PM 78.8 °F - 51.8 °F 39% 30.11 in 10.0 mi SSE 6.9 mph - N/A   Clear
12:55 PM 82.4 °F 81.4 °F 53.6 °F 37% 30.10 in 10.0 mi Calm Calm - N/A   Clear
1:15 PM 82.4 °F 81.4 °F 53.6 °F 37% 30.09 in 10.0 mi SSE 5.8 mph - N/A   Clear
1:35 PM 82.4 °F 81.4 °F 53.6 °F 37% 30.09 in 10.0 mi East 6.9 mph - N/A   Clear
1:55 PM 82.4 °F 81.4 °F 53.6 °F 37% 30.08 in 10.0 mi SE 8.1 mph - N/A   Clear
2:15 PM 84.2 °F 82.8 °F 53.6 °F 35% 30.07 in 10.0 mi WSW 6.9 mph - N/A   Clear
2:35 PM 82.4 °F 81.4 °F 53.6 °F 37% 30.07 in 10.0 mi East 3.5 mph - N/A   Partly Cloudy
2:55 PM 84.2 °F - 51.8 °F 33% 30.06 in 10.0 mi East 6.9 mph - N/A   Scattered Clouds
3:15 PM 82.4 °F - 51.8 °F 35% 30.05 in 10.0 mi East 3.5 mph - N/A   Clear
3:35 PM 84.2 °F - 51.8 °F 33% 30.04 in 10.0 mi South 6.9 mph - N/A   Clear
3:55 PM 84.2 °F - 51.8 °F 33% 30.03 in 10.0 mi Calm Calm - N/A   Clear
4:15 PM 84.2 °F - 51.8 °F 33% 30.03 in 10.0 mi ENE 6.9 mph - N/A   Clear
4:36 PM 84.2 °F - 50.0 °F 30% 30.02 in 10.0 mi East 8.1 mph - N/A   Clear
4:55 PM 84.2 °F - 50.0 °F 30% 30.01 in 10.0 mi SE 8.1 mph 16.1 mph N/A   Clear
5:15 PM 84.2 °F - 48.2 °F 29% 30.01 in 10.0 mi ESE 5.8 mph - N/A   Clear
5:35 PM 84.2 °F - 48.2 °F 29% 30.00 in 10.0 mi East 4.6 mph - N/A   Clear
5:55 PM 82.4 °F - 50.0 °F 32% 29.98 in 10.0 mi East 11.5 mph - N/A   Clear
6:15 PM 82.4 °F - 50.0 °F 32% 30.01 in 10.0 mi East 8.1 mph - N/A Thunderstorm Thunderstorm
6:35 PM 60.8 °F - 51.8 °F 72% 30.08 in 1.2 mi North 19.6 mph 58.7 mph 0.88 in Thunderstorm Thunderstorm
6:55 PM 62.6 °F - 57.2 °F 82% 30.06 in 10.0 mi North 11.5 mph 24.2 mph 1.05 in Thunderstorm Thunderstorm
7:15 PM 66.2 °F - 59.0 °F 78% 30.03 in 10.0 mi NE 13.8 mph - 0.01 in   Partly Cloudy
7:35 PM 66.2 °F - 59.0 °F 78% 30.02 in 10.0 mi NE 11.5 mph - 0.01 in   Clear
7:55 PM 66.2 °F - 57.2 °F 73% 30.01 in 10.0 mi ENE 9.2 mph - 0.01 in   Clear
8:15 PM 66.2 °F - 57.2 °F 73% 30.01 in 10.0 mi ENE 5.8 mph - N/A   Clear
8:35 PM 66.2 °F - 57.2 °F 73% 30.06 in 10.0 mi North 24.2 mph 32.2 mph N/A Thunderstorm Mostly Cloudy
9:15 PM 66.2 °F - 53.6 °F 64% 30.06 in 10.0 mi NE 12.7 mph - N/A Thunderstorm Mostly Cloudy
9:35 PM 68.0 °F - 51.8 °F 56% 30.09 in 10.0 mi North 8.1 mph 20.7 mph N/A Thunderstorm Mostly Cloudy
9:55 PM 68.0 °F - 53.6 °F 60% 30.02 in 10.0 mi SSE 19.6 mph - N/A Thunderstorm Mostly Cloudy
10:15 PM 68.0 °F - 51.8 °F 56% 30.02 in 10.0 mi SSW 16.1 mph 26.5 mph N/A   Scattered Clouds
10:35 PM 68.0 °F - 51.8 °F 56% 30.01 in 10.0 mi South 10.4 mph - N/A   Clear
10:55 PM 66.2 °F - 51.8 °F 60% 30.01 in 10.0 mi South 11.5 mph - N/A   Clear
11:15 PM 66.2 °F - 53.6 °F 64% 30.02 in 10.0 mi NE 5.8 mph - N/A   Mostly Cloudy
11:35 PM 66.2 °F - 53.6 °F 64% 30.06 in 10.0 mi NNW 12.7 mph - N/A   Mostly Cloudy
11:55 PM 64.4 °F - 53.6 °F 68% 30.07 in 10.0 mi North 12.7 mph - N/A   Overcast